This is the latest recevied weather packets stored in our database for station/object DM2KB-13. If no packets are shown the sender has not sent any weather packets the latest 10 day(s).
| Time | Temp. | Humidity | Pressure | Rain* | Wind** | Luminosity | Snow |
|---|---|---|---|---|---|---|---|
| 1778052969 | 9.44° C | 99% | 1005.4 hPa | 1.78 mm | - | 127 W/m² | - |
| 1778052669 | 9.44° C | 99% | 1005.3 hPa | 1.52 mm | - | 102 W/m² | - |
| 1778052369 | 9.44° C | 99% | 1005.3 hPa | 1.78 mm | - | 79 W/m² | - |
| 1778052068 | 9.44° C | 99% | 1005.3 hPa | 2.03 mm | - | 67 W/m² | - |
| 1778051768 | 9.44° C | 99% | 1005.2 hPa | 1.78 mm | - | 105 W/m² | - |
| 1778051468 | 9.44° C | 99% | 1005.2 hPa | 1.78 mm | - | 72 W/m² | - |
| 1778051168 | 9.44° C | 99% | 1005.2 hPa | 1.78 mm | - | 70 W/m² | - |
| 1778050867 | 9.44° C | 99% | 1005.2 hPa | 1.78 mm | - | 53 W/m² | - |
| 1778050567 | 9.44° C | 99% | 1005.2 hPa | 1.52 mm | - | 86 W/m² | - |
| 1778050267 | 9.44° C | 99% | 1005.2 hPa | 1.78 mm | - | 79 W/m² | - |
| 1778049967 | 9.44° C | 99% | 1005.1 hPa | 1.78 mm | - | 72 W/m² | - |
| 1778049666 | 9.44° C | 99% | 1005.2 hPa | 1.52 mm | - | 62 W/m² | - |
| 1778049366 | 9.44° C | 99% | 1005.2 hPa | 1.78 mm | - | 56 W/m² | - |
| 1778049066 | 9.44° C | 99% | 1005.2 hPa | 2.03 mm | - | 53 W/m² | - |
| 1778048765 | 9.44° C | 99% | 1005.1 hPa | 2.03 mm | - | 44 W/m² | - |
| 1778048465 | 9.44° C | 99% | 1005.1 hPa | 2.03 mm | - | 49 W/m² | - |
| 1778048165 | 9.44° C | 99% | 1005.1 hPa | 2.29 mm | - | 49 W/m² | - |
| 1778047865 | 9.44° C | 99% | 1005 hPa | 2.29 mm | - | 49 W/m² | - |
| 1778047564 | 8.89° C | 98% | 1005 hPa | 2.29 mm | - | 49 W/m² | - |
| 1778047264 | 8.89° C | 99% | 1005 hPa | 2.29 mm | - | 44 W/m² | - |
| 1778046964 | 8.89° C | 99% | 1004.9 hPa | 2.54 mm | - | 44 W/m² | - |
| 1778046663 | 8.89° C | 99% | 1004.9 hPa | 2.54 mm | - | 35 W/m² | - |
| 1778046363 | 8.89° C | 99% | 1005 hPa | 2.54 mm | - | 33 W/m² | - |
| 1778046063 | 9.44° C | 99% | 1005 hPa | 2.54 mm | - | 35 W/m² | - |
| 1778045763 | 9.44° C | 99% | 1004.9 hPa | 2.54 mm | - | 30 W/m² | - |
* Rain latest hour (hover to see other rain measurements)
** Current wind speed in m/s (hover to see current wind gust speed)